OBJECT C, 60237

Orbit data source: Space-Track

You're viewing an Uncataloged Satellite

Recently launched and/or uncataloged satellites may have evolving metadata. Metadata may include but not limited to: Owner, Maufacturer, Bus, Motor, and Mission.

OBJECT C, 60237 is a satellite in LEO that was launched on Tue, 09 Jul 2024 UTC via an ARIANE 62 launch vehicle from the French Guiana (FRGUI). Unknown objects in Earth's orbit typically refer to objects detected orbiting the Earth but have not yet been identified or cataloged. These objects could be anything from previously untracked satellites, spent rocket stages, debris from satellite collisions, or even natural meteoroids temporarily captured by Earth's gravity.

Loading next visibility...
Identifier
60237, 2024-128C
Orbit
LEO
Country
Flag of TBDTBD
Related business
Flag of SKTechnical University of Kosice (SK)
Manufacturer
TUKE/KONK
Mission
Operational Amateur Astronomy
Bus & Motor
CUBESAT 2U, Unknown motor
Mass
2 kg wet, 2 kg dry
Launch date (UTC)
2024-07-09 (1 year ago)
Launch vehicle
ARIANE 62
Launch site
French Guiana (FRGUI)
Object type
Unknown
Shape & HBR
Box, 0.1 m
Radar Cross Section
0.025 m², Small (<0.1 m²)

Expand to show TLE details & history
Last TLE update: 11 hours ago

TLE from 11 hours ago
0 OBJECT C
1 60237U 24128C   25242.90304028  .00008304  00000-0  60335-3 0  9991
2 60237  61.9912 152.3902 0056518  75.3180 285.4167 15.03279203 62574
Epoch: 2025-08-30T21:40Z
TLE epoch observation values (Epoch: 2025-08-30T21:40:22.68Z)
Latitude
Longitude
-152.03496°
Altitude
548.35 km
Speed
7.594 km/s
True Right ascension
10h 09m 33s
True Declination
0° 00' 00"
Sunlit
Object was in daylight at epoch
Visualization orbit readout
Latitude
Unknown
Longitude
Unknown
Altitude
Unknown
Speed
Unknown
Apparent Right ascension
Unknown
Apparent Declination
Unknown
Sunlit
N/A
Visualization observer readout
Local Sidereal Time
00:20:55
Azimuth
Unknown
Elevation
Unknown
Doppler factor
Unknown
Orbital elements
Apogee altitude
594.911 km
Perigee altitude
516.534 km
Semi-major axis
6,933.86 km
Eccentricity
0.00565
Inclination
61.9912°
RAAN
152.3902°
Arg. of periapsis
75.318°
True anomaly
284.79119°
Mean anomaly
285.4167°
Eccentric anomaly
285.10406°
Mean motion
3.75907 °/min
Orbital period
95.77 mins
BSTAR
0.00060335
Loading maneuver chart data...
Computing Atmospheric mass density...
Loading historical data...
Loading historical data...
Loading historical data...
Loading historical data...
Loading historical data...
Loading historical data...
Loading historical data...

Documentation

Showing up to 5 results
|